AV279 Weather Reports


time (UTC)temp
C
wind
direction
speed
KPH
gust
KPH
rain 1hr
cm
rain 24hr
cm
rain mn
cm
humidity
%
barometer
mb
20260902152331 21 293 4.8 8.0 0.00 0.03 0.03 67 1019.5
20260902151403 21 225 8.0 16.1 0.00 0.03 0.03 68 1019.6
20260902150320 21 248 6.4 14.5 0.00 0.03 0.03 69 1019.7
20260902145341 21 225 4.8 9.7 0.00 0.03 0.03 69 1019.6
20260902144320 21 248 6.4 12.9 0.00 0.03 0.03 69 1019.7
20260902143330 21 225 8.0 16.1 0.00 0.03 0.03 69 1019.7
20260902142330 22 270 4.8 9.7 0.00 0.03 0.03 68 1019.8
20260902141320 21 248 3.2 6.4 0.00 0.03 0.03 71 1019.8
20260902140320 21 248 4.8 6.4 0.00 0.03 0.03 69 1019.9
20260902135320 21 248 4.8 9.7 0.00 0.03 0.03 70 1019.9
20260902134330 21 270 4.8 9.7 0.00 0.03 0.03 70 1019.8
20260902133330 21 270 3.2 4.8 0.00 0.03 0.03 71 1019.8
20260902132352 21 225 9.7 16.1 0.00 0.03 0.03 72 1019.9
20260902131330 20 180 8.0 14.5 0.00 0.03 0.03 73 1020.0
20260902130330 20 248 6.4 12.9 0.00 0.03 0.03 73 1020.0
20260902125320 21 248 4.8 9.7 0.00 0.03 0.03 73 1019.9
20260902124320 21 248 8.0 14.5 0.00 0.03 0.03 70 1020.0
20260902123319 21 270 3.2 4.8 0.00 0.03 0.03 73 1020.0
20260902122320 21 270 3.2 6.4 0.00 0.03 0.03 73 1019.9
20260902121319 21 248 8.0 11.3 0.00 0.03 0.03 75 1020.1
20260902120359 21 248 3.2 6.4 0.00 0.03 0.03 74 1020.1
20260902115330 21 270 4.8 6.4 0.00 0.03 0.03 72 1020.0
20260902114320 21 248 3.2 4.8 0.00 0.03 0.03 74 1020.1
20260902113320 21 158 3.2 8.0 0.00 0.03 0.03 75 1020.1
20260902112320 21 248 4.8 6.4 0.00 0.03 0.03 76 1020.3
20260902111320 21 203 3.2 6.4 0.00 0.03 0.03 79 1020.3
20260902110341 20 248 3.2 6.4 0.00 0.03 0.03 83 1020.2
20260902105331 20 270 3.2 9.7 0.00 0.03 0.03 86 1020.5
20260902104320 19 270 1.6 3.2 0.00 0.03 0.03 88 1020.5
20260902103331 18 270 3.2 4.8 0.00 0.03 0.03 89 1020.6
20260902102353 18 203 3.2 6.4 0.03 0.03 0.03 91 1020.7
20260902101319 17 203 3.2 6.4 0.03 0.03 0.03 91 1020.7
20260902100320 17 203 3.2 4.8 0.03 0.03 0.03 91 1020.8
20260902095319 17 225 1.6 3.2 0.03 0.03 0.03 90 1020.8
20260902094321 17 225 1.6 1.6 0.03 0.03 0.03 89 1020.9
20260902093319 17 0 1.6 1.6 0.03 0.03 0.03 86 1020.8
20260902092322 17 315 1.6 3.2 0.00 0.00 0.00 83 1020.9
20260902091518 17 248 6.4 9.7 0.00 0.00 0.00 83 1020.8
20260902090931 17 225 8.0 11.3 0.00 0.00 0.00 82 1020.7
20260902090117 17 248 4.8 9.7 0.00 0.00 0.00 83 1020.6
20260902085403 17 225 6.4 12.9 0.00 0.00 0.00 83 1020.5
20260902084420 17 225 9.7 12.9 0.00 0.00 0.00 84 1020.5
20260902083420 17 248 4.8 9.7 0.00 0.00 0.00 85 1020.4
20260902082454 17 248 6.4 9.7 0.00 0.00 0.00 87 1020.1
20260902081420 17 225 4.8 6.4 0.00 0.00 0.00 88 1019.9
20260902080430 17 225 4.8 9.7 0.00 0.00 0.00 88 1019.9
20260902075419 17 225 6.4 11.3 0.00 0.00 0.00 88 1019.9
20260902074430 17 203 4.8 9.7 0.00 0.00 0.00 88 1019.9
20260902073419 17 248 3.2 4.8 0.00 0.00 0.00 89 1019.9
20260902072421 17 203 3.2 6.4 0.00 0.00 0.00 89 1019.6
20260902071419 16 225 3.2 6.4 0.00 0.00 0.00 90 1019.7
20260902070419 16 225 4.8 8.0 0.00 0.00 0.00 91 1019.6
20260902065420 16 203 6.4 9.7 0.00 0.00 0.00 91 1019.7
20260902064628 15 225 3.2 6.4 0.00 0.00 0.00 92 1019.7
20260902063420 15 225 1.6 3.2 0.00 0.00 0.00 92 1019.6
20260902062419 15 225 3.2 8.0 0.00 0.00 0.00 92 1019.7
20260902061419 15 248 3.2 6.4 0.00 0.00 0.00 92 1019.7
20260902060454 15 225 4.8 6.4 0.00 0.00 0.00 92 1019.5
20260902055419 15 225 3.2 4.8 0.00 0.00 0.00 92 1019.6
20260902054430 14 203 1.6 3.2 0.00 0.00 0.00 92 1019.5
20260902053419 14 225 3.2 6.4 0.00 0.00 0.00 92 1019.4
20260902052451 14 203 1.6 3.2 0.00 0.00 0.00 92 1019.3
20260902051442 14 203 4.8 6.4 0.00 0.00 0.00 92 1019.2
20260902050420 14 203 1.6 3.2 0.00 0.00 0.00 92 1019.3
20260902045419 14 225 4.8 6.4 0.00 0.00 0.00 92 1019.3
20260902044451 14 225 4.8 9.7 0.00 0.00 0.00 92 1019.3
20260902043419 14 225 4.8 6.4 0.00 0.00 0.00 91 1019.2
20260902042509 15 225 3.2 6.4 0.00 0.00 0.00 91 1019.2
20260902041511 15 225 6.4 8.0 0.00 0.00 0.00 91 1019.2
20260902040440 15 248 3.2 3.2 0.00 0.00 0.00 91 1019.1
20260902035419 15 225 4.8 6.4 0.00 0.00 0.00 91 1019.1
20260902034421 15 225 3.2 4.8 0.00 0.00 0.00 91 1019.0
20260902033429 15 203 4.8 8.0 0.00 0.00 0.00 91 1019.1
20260902032500 14 225 4.8 6.4 0.00 0.00 0.00 91 1019.1
20260902031420 14 225 3.2 6.4 0.00 0.00 0.00 91 1019.1
20260902030430 14 225 4.8 6.4 0.00 0.00 0.00 91 1019.0
20260902025419 14 225 4.8 8.0 0.00 0.00 0.00 91 1019.2
20260902024433 15 225 4.8 6.4 0.00 0.00 0.00 91 1019.2
20260902023419 15 225 3.2 4.8 0.00 0.00 0.00 90 1019.2
20260902022440 15 225 3.2 4.8 0.00 0.00 0.00 90 1019.4
20260902021419 15 225 3.2 3.2 0.00 0.00 0.00 90 1019.4
20260902020419 15 225 3.2 6.4 0.00 0.03 0.00 90 1019.5
20260902015419 15 225 3.2 4.8 0.00 0.03 0.00 90 1019.5
20260902014419 15 225 3.2 6.4 0.00 0.03 0.00 90 1019.5
20260902013419 15 225 4.8 8.0 0.00 0.03 0.00 90 1019.5
20260902012452 15 225 4.8 6.4 0.00 0.03 0.00 90 1019.6
20260902011419 15 225 3.2 6.4 0.00 0.03 0.00 90 1019.6
20260902010431 15 225 3.2 6.4 0.00 0.03 0.00 89 1019.5
20260902005442 15 225 3.2 3.2 0.00 0.03 0.00 89 1019.7
20260902004420 15 203 1.6 4.8 0.00 0.03 0.00 89 1019.7
20260902003419 15 225 1.6 3.2 0.00 0.03 0.00 89 1019.7
20260902002418 15 225 3.2 4.8 0.00 0.03 0.00 89 1019.5
20260902001441 15 225 3.2 6.4 0.00 0.03 0.00 89 1019.6
20260902000453 15 203 1.6 4.8 0.00 0.03 0.00 88 1019.6
20260901235439 15 203 3.2 4.8 0.00 0.03 0.03 88 1019.5
20260901234441 15 180 4.8 6.4 0.00 0.03 0.03 88 1019.5
20260901233421 15 203 3.2 3.2 0.00 0.03 0.03 88 1019.9
20260901232419 15 225 4.8 8.0 0.00 0.03 0.03 88 1019.9
20260901231419 15 203 3.2 6.4 0.00 0.03 0.03 88 1020.0
20260901230420 14 203 3.2 4.8 0.00 0.03 0.03 88 1020.0
20260901225419 15 248 3.2 4.8 0.00 0.03 0.03 88 1020.0
20260901224432 14 225 3.2 4.8 0.00 0.03 0.03 88 1020.0
20260901223441 15 225 1.6 3.2 0.00 0.03 0.03 87 1020.2
20260901222429 15 248 1.6 3.2 0.00 0.03 0.03 87 1020.1
20260901221429 15 225 3.2 4.8 0.00 0.03 0.03 87 1020.1
20260901220658 15 225 3.2 4.8 0.00 0.03 0.03 87 1020.1
20260901220118 15 225 4.8 6.4 0.00 0.03 0.03 87 1020.1
20260901215118 15 0.0 1.6 0.00 0.03 0.03 86 1020.0
20260901214150 15 225 1.6 3.2 0.00 0.03 0.03 86 1020.0
20260901213101 15 225 3.2 4.8 0.00 0.03 0.03 85 1020.1
20260901212129 15 203 3.2 6.4 0.00 0.03 0.03 85 1020.3
20260901211118 15 225 3.2 6.4 0.00 0.03 0.03 85 1020.4
20260901210118 15 203 3.2 4.8 0.00 0.03 0.03 84 1020.3
20260901205118 15 225 3.2 4.8 0.00 0.05 0.03 84 1020.3
20260901204118 15 248 1.6 6.4 0.00 0.13 0.03 83 1020.5
20260901203119 15 225 3.2 4.8 0.00 0.43 0.03 83 1020.3
20260901202129 16 203 1.6 3.2 0.00 0.46 0.03 82 1020.3
20260901201149 16 0.0 0.0 0.00 0.46 0.03 82 1020.3
20260901200118 16 225 3.2 4.8 0.00 0.46 0.03 81 1020.7
20260901195120 16 0.0 0.0 0.00 0.46 0.03 81 1020.5
20260901194118 16 203 1.6 3.2 0.00 0.46 0.03 80 1020.5
20260901193140 16 225 1.6 3.2 0.00 0.46 0.03 80 1020.6
20260901192201 16 0.0 1.6 0.00 0.46 0.03 79 1020.5
20260901191118 17 225 3.2 4.8 0.00 0.46 0.03 78 1020.5
20260901190118 17 0.0 1.6 0.00 0.46 0.03 77 1020.4
20260901185138 17 225 1.6 3.2 0.00 0.46 0.03 76 1020.3
20260901184317 17 0.0 1.6 0.00 0.46 0.03 75 1020.2
20260901183420 17 0.0 1.6 0.00 0.46 0.03 74 1020.2
20260901182420 17 0.0 1.6 0.00 0.46 0.03 73 1020.0
20260901181418 18 248 1.6 3.2 0.00 0.46 0.03 72 1020.0
20260901180523 18 225 1.6 3.2 0.00 0.46 0.03 72 1020.1
20260901175420 18 225 1.6 3.2 0.00 0.46 0.03 71 1020.0
20260901174441 18 225 3.2 4.8 0.00 0.46 0.03 70 1020.0
20260901173430 18 248 4.8 6.4 0.00 0.46 0.03 68 1019.9
20260901172438 19 248 1.6 3.2 0.00 0.46 0.03 67 1019.9
20260901171420 19 248 4.8 6.4 0.00 0.46 0.03 66 1019.9
20260901170420 19 248 1.6 3.2 0.00 0.46 0.03 65 1020.1
20260901165419 20 225 3.2 4.8 0.00 0.46 0.03 64 1020.1
20260901164419 20 248 6.4 12.9 0.00 0.46 0.03 63 1020.1
20260901163440 20 270 3.2 4.8 0.00 0.46 0.03 63 1020.1
20260901162420 20 293 4.8 9.7 0.00 0.46 0.03 63 1020.1
20260901161420 20 248 8.0 12.9 0.00 0.46 0.03 62 1020.1
20260901160420 20 225 6.4 11.3 0.00 0.46 0.03 64 1020.1
20260901155430 20 225 4.8 8.0 0.00 0.46 0.03 64 1020.1
20260901154420 20 248 4.8 8.0 0.00 0.46 0.03 64 1019.9
20260901153430 20 248 3.2 4.8 0.00 0.46 0.03 65 1020.0